| time (UTC) | temp C | wind direction | speed KPH | gust KPH | rain 1hr cm | rain 24hr cm | rain mn cm | humidity % | barometer mb |
| 20260504070304 | 7 | 201 | 3.2 | 9.7 | 0.00 | 0.00 | 0.00 | 65 | 1012.9 |
| 20260504045804 | 8 | 232 | 3.2 | 9.7 | 0.00 | 0.00 | 0.00 | 61 | 1013.1 |
| 20260504045304 | 8 | 240 | 1.6 | 9.7 | 0.00 | 0.00 | 0.00 | 61 | 1013.1 |
| 20260504044805 | 8 | 228 | 1.6 | 8.0 | 0.00 | 0.00 | 0.00 | 61 | 1013.1 |
| 20260504044304 | 8 | 209 | 1.6 | 4.8 | 0.00 | 0.00 | 0.00 | 60 | 1013.0 |
| 20260504043805 | 8 | 211 | 3.2 | 11.3 | 0.00 | 0.00 | 0.00 | 60 | 1013.1 |
| 20260504043304 | 8 | 214 | 3.2 | 16.1 | 0.00 | 0.00 | 0.00 | 60 | 1013.0 |
| 20260504042805 | 8 | 200 | 3.2 | 9.7 | 0.00 | 0.00 | 0.00 | 60 | 1013.0 |
| 20260504042305 | 8 | 239 | 3.2 | 17.7 | 0.00 | 0.00 | 0.00 | 60 | 1013.0 |
| 20260504041804 | 8 | 256 | 3.2 | 9.7 | 0.00 | 0.00 | 0.00 | 59 | 1013.0 |
| 20260504041304 | 8 | 239 | 3.2 | 11.3 | 0.00 | 0.00 | 0.00 | 59 | 1013.0 |
| 20260504040804 | 8 | 247 | 3.2 | 11.3 | 0.00 | 0.00 | 0.00 | 59 | 1013.0 |
| 20260504040304 | 8 | 245 | 3.2 | 11.3 | 0.00 | 0.00 | 0.00 | 60 | 1012.9 |
| 20260504035847 | 8 | 237 | 3.2 | 8.0 | 0.00 | 0.00 | 0.00 | 59 | 1012.9 |
| 20260504035305 | 8 | 254 | 3.2 | 11.3 | 0.00 | 0.00 | 0.00 | 60 | 1012.9 |
| 20260504034805 | 8 | 220 | 3.2 | 12.9 | 0.00 | 0.00 | 0.00 | 60 | 1012.8 |
| 20260504034305 | 8 | 224 | 3.2 | 12.9 | 0.00 | 0.00 | 0.00 | 60 | 1012.8 |
| 20260504033804 | 8 | 235 | 3.2 | 9.7 | 0.00 | 0.28 | 0.00 | 59 | 1012.7 |
| 20260504033305 | 8 | 245 | 1.6 | 6.4 | 0.00 | 0.00 | 0.00 | 59 | 1012.7 |
| 20260504032804 | 8 | 217 | 1.6 | 6.4 | 0.00 | 0.00 | 0.00 | 58 | 1012.7 |
| 20260504032304 | 8 | 215 | 1.6 | 4.8 | 0.00 | 0.00 | 0.00 | 58 | 1012.7 |
| 20260504031804 | 8 | 232 | 1.6 | 6.4 | 0.00 | 0.00 | 0.00 | 61 | 1012.7 |
| 20260504031304 | 8 | 245 | 1.6 | 6.4 | 0.00 | 0.00 | 0.00 | 58 | 1012.7 |
| 20260504030805 | 8 | 239 | 3.2 | 6.4 | 0.00 | 0.00 | 0.00 | 58 | 1012.7 |
| 20260504025805 | 9 | 242 | 3.2 | 8.0 | 0.00 | 0.00 | 0.00 | 58 | 1012.6 |
| 20260504025305 | 9 | 272 | 3.2 | 14.5 | 0.00 | 0.00 | 0.00 | 58 | 1012.6 |
| 20260504024846 | 9 | 247 | 1.6 | 9.7 | 0.00 | 0.00 | 0.00 | 57 | 1012.7 |
| 20260504024305 | 9 | 269 | 1.6 | 4.8 | 0.00 | 0.00 | 0.00 | 58 | 1012.7 |
| 20260504023806 | 9 | 241 | 3.2 | 9.7 | 0.00 | 0.00 | 0.00 | 58 | 1012.7 |
| 20260504023304 | 9 | 228 | 1.6 | 6.4 | 0.00 | 0.00 | 0.00 | 57 | 1012.7 |
| 20260504022805 | 9 | 238 | 1.6 | 9.7 | 0.00 | 0.00 | 0.00 | 57 | 1012.7 |
| 20260504022305 | 9 | 229 | 1.6 | 6.4 | 0.00 | 0.00 | 0.00 | 57 | 1012.7 |
| 20260504021805 | 9 | 220 | 1.6 | 6.4 | 0.00 | 0.00 | 0.00 | 56 | 1012.7 |
| 20260504021304 | 9 | 237 | 0.0 | 4.8 | 0.00 | 0.00 | 0.00 | 56 | 1012.7 |
| 20260504020805 | 10 | 238 | 1.6 | 4.8 | 0.00 | 0.00 | 0.00 | 56 | 1012.7 |
| 20260504020305 | 10 | 238 | 1.6 | 3.2 | 0.00 | 0.00 | 0.00 | 56 | 1012.8 |
| 20260504015804 | 10 | 240 | 1.6 | 4.8 | 0.00 | 0.00 | 0.00 | 55 | 1012.8 |
| 20260504015304 | 10 | 242 | 3.2 | 6.4 | 0.00 | 0.00 | 0.00 | 55 | 1012.7 |
| 20260504014805 | 10 | 238 | 3.2 | 8.0 | 0.00 | 0.00 | 0.00 | 56 | 1012.7 |
| 20260504014304 | 10 | 201 | 3.2 | 17.7 | 0.00 | 0.00 | 0.00 | 56 | 1012.6 |
| 20260504013804 | 10 | 232 | 3.2 | 22.5 | 0.00 | 0.00 | 0.00 | 56 | 1012.6 |
| 20260504013305 | 10 | 229 | 3.2 | 9.7 | 0.00 | 0.00 | 0.00 | 56 | 1012.6 |
| 20260504012847 | 10 | 245 | 3.2 | 9.7 | 0.00 | 0.00 | 0.00 | 55 | 1012.5 |
| 20260504012305 | 10 | 248 | 3.2 | 9.7 | 0.00 | 0.00 | 0.00 | 55 | 1012.5 |
| 20260504011805 | 10 | 248 | 4.8 | 11.3 | 0.00 | 0.00 | 0.00 | 55 | 1012.5 |
| 20260504011305 | 10 | 268 | 3.2 | 9.7 | 0.00 | 0.00 | 0.00 | 56 | 1012.4 |
| 20260504010805 | 10 | 230 | 3.2 | 11.3 | 0.00 | 0.00 | 0.00 | 55 | 1012.4 |
| 20260504010305 | 10 | 258 | 3.2 | 11.3 | 0.00 | 0.00 | 0.00 | 56 | 1012.4 |
| 20260504005805 | 10 | 240 | 3.2 | 14.5 | 0.00 | 0.00 | 0.00 | 55 | 1012.4 |
| 20260504005305 | 10 | 254 | 3.2 | 9.7 | 0.00 | 0.00 | 0.00 | 54 | 1012.3 |
| 20260504004805 | 10 | 260 | 3.2 | 14.5 | 0.00 | 0.00 | 0.00 | 54 | 1012.3 |
| 20260504003805 | 10 | 248 | 3.2 | 16.1 | 0.00 | 0.00 | 0.00 | 53 | 1012.2 |
| 20260504003304 | 11 | 233 | 1.6 | 9.7 | 0.00 | 0.00 | 0.00 | 53 | 1012.1 |
| 20260504002804 | 11 | 257 | 1.6 | 11.3 | 0.00 | 0.00 | 0.00 | 52 | 1012.0 |
| 20260504002305 | 11 | 249 | 3.2 | 6.4 | 0.00 | 0.00 | 0.00 | 51 | 1012.0 |
| 20260504001805 | 11 | 255 | 3.2 | 8.0 | 0.00 | 0.00 | 0.00 | 50 | 1012.0 |
| 20260504001304 | 11 | 289 | 3.2 | 11.3 | 0.00 | 0.00 | 0.00 | 50 | 1011.9 |
| 20260504000805 | 11 | 268 | 3.2 | 11.3 | 0.00 | 0.00 | 0.00 | 49 | 1011.9 |
| 20260504000347 | 11 | 253 | 4.8 | 9.7 | 0.00 | 0.00 | 0.00 | 50 | 1011.9 |
| 20260503235847 | 12 | 300 | 3.2 | 12.9 | 0.00 | 0.00 | 0.00 | 50 | 1011.8 |
| 20260503235347 | 12 | 262 | 3.2 | 9.7 | 0.00 | 0.00 | 0.00 | 49 | 1011.8 |
| 20260503234805 | 12 | 282 | 3.2 | 9.7 | 0.00 | 0.00 | 0.00 | 48 | 1011.8 |
| 20260503234305 | 12 | 261 | 4.8 | 11.3 | 0.00 | 0.00 | 0.00 | 48 | 1011.8 |
| 20260503233805 | 12 | 281 | 3.2 | 11.3 | 0.00 | 0.00 | 0.00 | 47 | 1011.6 |
| 20260503233305 | 12 | 302 | 3.2 | 11.3 | 0.00 | 0.00 | 0.00 | 46 | 1011.7 |
| 20260503232805 | 13 | 268 | 4.8 | 16.1 | 0.00 | 0.00 | 0.00 | 46 | 1011.6 |
| 20260503232305 | 13 | 262 | 4.8 | 20.9 | 0.00 | 0.00 | 0.00 | 45 | 1011.6 |
| 20260503231847 | 13 | 270 | 6.4 | 16.1 | 0.00 | 0.00 | 0.00 | 44 | 1011.6 |
| 20260503231305 | 13 | 267 | 6.4 | 22.5 | 0.00 | 0.00 | 0.00 | 44 | 1011.5 |
| 20260503230805 | 13 | 279 | 6.4 | 24.1 | 0.00 | 0.00 | 0.00 | 44 | 1011.5 |
| 20260503230304 | 13 | 307 | 6.4 | 24.1 | 0.00 | 0.00 | 0.00 | 44 | 1011.5 |
| 20260503225805 | 13 | 297 | 6.4 | 20.9 | 0.00 | 0.00 | 0.00 | 44 | 1011.4 |
| 20260503225305 | 13 | 284 | 6.4 | 19.3 | 0.00 | 0.00 | 0.00 | 44 | 1011.4 |
| 20260503224805 | 13 | 279 | 4.8 | 14.5 | 0.00 | 0.00 | 0.00 | 43 | 1011.5 |
| 20260503224304 | 13 | 269 | 4.8 | 22.5 | 0.00 | 0.00 | 0.00 | 45 | 1011.4 |
| 20260503223805 | 14 | 275 | 6.4 | 16.1 | 0.00 | 0.00 | 0.00 | 45 | 1011.4 |
| 20260503223305 | 14 | 268 | 6.4 | 11.3 | 0.00 | 0.00 | 0.00 | 44 | 1011.4 |
| 20260503222805 | 14 | 270 | 4.8 | 20.9 | 0.00 | 0.00 | 0.00 | 43 | 1011.4 |
| 20260503222305 | 14 | 265 | 4.8 | 9.7 | 0.00 | 0.00 | 0.00 | 44 | 1011.5 |
| 20260503221805 | 14 | 277 | 4.8 | 17.7 | 0.00 | 0.00 | 0.00 | 44 | 1011.5 |
| 20260503221305 | 15 | 255 | 3.2 | 17.7 | 0.00 | 0.00 | 0.00 | 44 | 1011.4 |
| 20260503220804 | 15 | 260 | 4.8 | 11.3 | 0.00 | 0.00 | 0.00 | 43 | 1011.5 |
| 20260503220305 | 15 | 290 | 6.4 | 16.1 | 0.00 | 0.00 | 0.00 | 42 | 1011.4 |
| 20260503215805 | 15 | 287 | 6.4 | 19.3 | 0.00 | 0.00 | 0.00 | 42 | 1011.5 |
| 20260503215305 | 15 | 292 | 4.8 | 22.5 | 0.00 | 0.00 | 0.00 | 40 | 1011.4 |
| 20260503214804 | 15 | 286 | 4.8 | 14.5 | 0.00 | 0.00 | 0.00 | 43 | 1011.4 |
| 20260503214304 | 15 | 285 | 6.4 | 20.9 | 0.00 | 0.00 | 0.00 | 43 | 1011.4 |
| 20260503213805 | 15 | 276 | 4.8 | 22.5 | 0.00 | 0.00 | 0.00 | 42 | 1011.4 |
| 20260503213305 | 15 | 283 | 4.8 | 20.9 | 0.00 | 0.00 | 0.00 | 43 | 1011.3 |
| 20260503212805 | 14 | 302 | 4.8 | 11.3 | 0.00 | 0.00 | 0.00 | 47 | 1011.2 |
| 20260503212347 | 14 | 267 | 3.2 | 19.3 | 0.00 | 0.00 | 0.00 | 45 | 1011.3 |
| 20260503211805 | 14 | 256 | 4.8 | 9.7 | 0.00 | 0.00 | 0.00 | 44 | 1011.3 |
| 20260503211304 | 14 | 280 | 6.4 | 16.1 | 0.00 | 0.00 | 0.00 | 43 | 1011.3 |
| 20260503210805 | 15 | 310 | 6.4 | 16.1 | 0.00 | 0.00 | 0.00 | 45 | 1011.2 |
| 20260503210305 | 15 | 284 | 4.8 | 29.0 | 0.00 | 0.00 | 0.00 | 41 | 1011.2 |
| 20260503205805 | 15 | 272 | 3.2 | 14.5 | 0.00 | 0.00 | 0.00 | 41 | 1011.2 |
| 20260503205305 | 15 | 285 | 3.2 | 14.5 | 0.00 | 0.00 | 0.00 | 42 | 1011.2 |
| 20260503204805 | 15 | 324 | 3.2 | 17.7 | 0.00 | 0.00 | 0.00 | 42 | 1011.2 |
| 20260503204305 | 15 | 267 | 4.8 | 16.1 | 0.00 | 0.00 | 0.00 | 43 | 1011.3 |
| 20260503203805 | 15 | 309 | 8.0 | 17.7 | 0.00 | 0.00 | 0.00 | 43 | 1011.2 |
| 20260503203305 | 15 | 307 | 8.0 | 20.9 | 0.00 | 0.00 | 0.00 | 40 | 1011.2 |
| 20260503202847 | 15 | 292 | 8.0 | 24.1 | 0.00 | 0.00 | 0.00 | 40 | 1011.2 |
| 20260503202305 | 16 | 285 | 6.4 | 27.4 | 0.00 | 0.00 | 0.00 | 40 | 1011.2 |
| 20260503201805 | 15 | 268 | 6.4 | 17.7 | 0.00 | 0.00 | 0.00 | 42 | 1011.2 |
| 20260503201347 | 15 | 289 | 6.4 | 29.0 | 0.00 | 0.00 | 0.00 | 43 | 1011.2 |
| 20260503200804 | 15 | 274 | 4.8 | 29.0 | 0.00 | 0.00 | 0.00 | 43 | 1011.2 |
| 20260503200305 | 15 | 308 | 4.8 | 20.9 | 0.00 | 0.00 | 0.00 | 43 | 1011.2 |
| 20260503195805 | 15 | 311 | 3.2 | 16.1 | 0.00 | 0.00 | 0.00 | 41 | 1011.2 |
| 20260503195305 | 15 | 316 | 3.2 | 16.1 | 0.00 | 0.00 | 0.00 | 44 | 1011.3 |
| 20260503194805 | 15 | 325 | 4.8 | 19.3 | 0.00 | 0.00 | 0.00 | 41 | 1011.6 |
| 20260503194305 | 15 | 312 | 3.2 | 17.7 | 0.00 | 0.00 | 0.00 | 40 | 1011.7 |
| 20260503193805 | 15 | 293 | 4.8 | 9.7 | 0.00 | 0.00 | 0.00 | 44 | 1011.8 |
| 20260503193305 | 15 | 299 | 4.8 | 16.1 | 0.00 | 0.00 | 0.00 | 40 | 1011.9 |
| 20260503192847 | 15 | 276 | 4.8 | 14.5 | 0.00 | 0.00 | 0.00 | 42 | 1012.0 |
| 20260503192305 | 15 | 263 | 4.8 | 8.0 | 0.00 | 0.00 | 0.00 | 43 | 1012.0 |
| 20260503191805 | 15 | 301 | 4.8 | 19.3 | 0.00 | 0.00 | 0.00 | 40 | 1012.1 |
| 20260503191305 | 15 | 317 | 6.4 | 20.9 | 0.00 | 0.00 | 0.00 | 39 | 1012.1 |
| 20260503190805 | 15 | 342 | 8.0 | 19.3 | 0.00 | 0.00 | 0.00 | 43 | 1012.2 |
| 20260503190305 | 15 | 289 | 6.4 | 20.9 | 0.00 | 0.00 | 0.00 | 41 | 1012.2 |
| 20260503185805 | 14 | 286 | 4.8 | 20.9 | 0.00 | 0.00 | 0.00 | 43 | 1012.2 |
| 20260503185305 | 14 | 268 | 4.8 | 12.9 | 0.00 | 0.00 | 0.00 | 43 | 1012.4 |
| 20260503184805 | 14 | 255 | 6.4 | 22.5 | 0.00 | 0.00 | 0.00 | 42 | 1012.4 |
| 20260503184305 | 15 | 347 | 4.8 | 19.3 | 0.00 | 0.00 | 0.00 | 39 | 1012.5 |
| 20260503183305 | 14 | 300 | 4.8 | 22.5 | 0.00 | 0.00 | 0.00 | 45 | 1012.5 |
| 20260503182804 | 14 | 303 | 1.6 | 22.5 | 0.00 | 0.00 | 0.00 | 43 | 1012.7 |
| 20260503182306 | 14 | 330 | 3.2 | 14.5 | 0.00 | 0.00 | 0.00 | 46 | 1012.7 |
| 20260503181805 | 13 | 325 | 4.8 | 9.7 | 0.00 | 0.00 | 0.00 | 42 | 1012.7 |
| 20260503181305 | 14 | 278 | 6.4 | 30.6 | 0.00 | 0.00 | 0.00 | 42 | 1012.7 |
| 20260503180805 | 14 | 302 | 8.0 | 20.9 | 0.00 | 0.00 | 0.00 | 42 | 1012.8 |
| 20260503180305 | 14 | 351 | 6.4 | 17.7 | 0.00 | 0.00 | 0.00 | 42 | 1012.8 |
| 20260503175805 | 14 | 306 | 4.8 | 17.7 | 0.00 | 0.00 | 0.00 | 44 | 1012.9 |
| 20260503175305 | 14 | 281 | 6.4 | 16.1 | 0.00 | 0.00 | 0.00 | 41 | 1013.0 |
| 20260503174805 | 14 | 341 | 6.4 | 30.6 | 0.00 | 0.00 | 0.00 | 43 | 1012.9 |
| 20260503174305 | 14 | 311 | 4.8 | 19.3 | 0.00 | 0.00 | 0.00 | 46 | 1013.0 |
| 20260503173805 | 13 | 343 | 6.4 | 20.9 | 0.00 | 0.00 | 0.00 | 47 | 1013.1 |
| 20260503173305 | 13 | 298 | 6.4 | 19.3 | 0.00 | 0.00 | 0.00 | 46 | 1013.2 |
| 20260503172805 | 13 | 272 | 6.4 | 14.5 | 0.00 | 0.00 | 0.00 | 45 | 1013.2 |
| 20260503172305 | 13 | 274 | 4.8 | 22.5 | 0.00 | 0.00 | 0.00 | 48 | 1013.1 |
| 20260503171805 | 12 | 295 | 4.8 | 14.5 | 0.00 | 0.00 | 0.00 | 47 | 1013.2 |
| 20260503171305 | 12 | 311 | 6.4 | 12.9 | 0.00 | 0.00 | 0.00 | 47 | 1013.4 |
| 20260503170805 | 12 | 335 | 6.4 | 22.5 | 0.00 | 0.00 | 0.00 | 48 | 1013.4 |
| 20260503170305 | 12 | 300 | 4.8 | 14.5 | 0.00 | 0.00 | 0.00 | 49 | 1013.4 |
| 20260503150805 | 11 | 335 | 8.0 | 20.9 | 0.00 | 0.00 | 0.00 | 53 | 1014.3 |
| 20260503150305 | 11 | 344 | 8.0 | 27.4 | 0.00 | 0.00 | 0.00 | 54 | 1014.3 |
| 20260503140305 | 9 | 8 | 6.4 | 16.1 | 0.00 | 0.00 | 0.00 | 55 | 1014.6 |
| 20260503131306 | 7 | 352 | 6.4 | 9.7 | 0.00 | 0.00 | 0.00 | 68 | 1015.0 |
| 20260503130805 | 7 | 354 | 4.8 | 20.9 | 0.00 | 0.00 | 0.00 | 68 | 1015.0 |
| 20260503130305 | 7 | 313 | 4.8 | 11.3 | 0.00 | 0.00 | 0.00 | 69 | 1015.0 |
| 20260503110805 | 2 | 309 | 3.2 | 16.1 | 0.00 | 0.00 | 0.00 | 85 | 1014.3 |
| 20260503110305 | 2 | 265 | 1.6 | 11.3 | 0.00 | 0.00 | 0.00 | 86 | 1014.2 |
| 20260503090305 | 3 | 353 | 3.2 | 11.3 | 0.00 | 0.00 | 0.00 | 82 | 1013.1 |
| 20260503081305 | 4 | 22 | 1.6 | 6.4 | 0.00 | 0.00 | 0.00 | 82 | 1013.0 |
| 20260503080805 | 4 | 23 | 3.2 | 8.0 | 0.00 | 0.00 | 0.00 | 81 | 1012.9 |
| 20260503080306 | 4 | 24 | 3.2 | 11.3 | 0.00 | 0.00 | 0.00 | 81 | 1012.9 |
| 20260503072806 | 4 | 11 | 3.2 | 8.0 | 0.00 | 0.00 | 0.00 | 81 | 1012.4 |
| 20260503072306 | 4 | 16 | 3.2 | 8.0 | 0.00 | 0.00 | 0.00 | 81 | 1012.5 |
| 20260503071805 | 4 | 345 | 0.0 | 9.7 | 0.00 | 0.00 | 0.00 | 81 | 1012.4 |
| 20260503071305 | 4 | 346 | 0.0 | 1.6 | 0.00 | 0.00 | 0.00 | 82 | 1012.5 |
| 20260503070805 | 4 | 346 | 1.6 | 6.4 | 0.00 | 0.00 | 0.00 | 82 | 1012.4 |